This is the latest recevied weather packets stored in our database for station/object W1GK. If no packets are shown the sender has not sent any weather packets the latest 10 day(s).
| Time | Temp. | Humidity | Pressure | Rain* | Wind** | Luminosity | Snow |
|---|---|---|---|---|---|---|---|
| 1777841402 | 32.22° C | 11% | 1008.1 hPa | 0 mm | - | 186 W/m² | - |
| 1777840801 | 31.67° C | 11% | 1008.3 hPa | 0 mm | - | 202 W/m² | - |
| 1777840200 | 32.22° C | 11% | 1008.6 hPa | 0 mm | - | 214 W/m² | - |
| 1777839600 | 31.67° C | 11% | 1008.8 hPa | 0 mm | - | 209 W/m² | - |
| 1777839000 | 32.22° C | 11% | 1008.9 hPa | 0 mm | - | 287 W/m² | - |
| 1777838401 | 32.22° C | 10% | 1009.1 hPa | 0 mm | - | 209 W/m² | - |
| 1777837798 | 32.22° C | 10% | 1009.4 hPa | 0 mm | - | 1056 W/m² | - |
| 1777837200 | 32.78° C | 10% | 1009.6 hPa | 0 mm | - | 1025 W/m² | - |
| 1777836601 | 32.22° C | 10% | 1009.8 hPa | 0 mm | - | 1018 W/m² | - |
| 1777836000 | 32.22° C | 9% | 1010 hPa | 0 mm | - | 1004 W/m² | - |
| 1777835399 | 31.67° C | 9% | 1010.2 hPa | 0 mm | - | 991 W/m² | - |
| 1777834802 | 31.67° C | 9% | 1010.4 hPa | 0 mm | - | 990 W/m² | - |
| 1777834200 | 31.67° C | 9% | 1010.7 hPa | 0 mm | - | 951 W/m² | - |
| 1777833600 | 30° C | 10% | 1010.9 hPa | 0 mm | - | 930 W/m² | - |
| 1777833000 | 30° C | 9% | 1010.9 hPa | 0 mm | - | 896 W/m² | - |
| 1777832401 | 28.33° C | 9% | 1011.1 hPa | 0 mm | - | 893 W/m² | - |
| 1777831802 | 28.33° C | 9% | 1011.2 hPa | 0 mm | - | 849 W/m² | - |
| 1777831203 | 28.33° C | 9% | 1011.3 hPa | 0 mm | - | 826 W/m² | - |
| 1777830601 | 27.78° C | 9% | 1011.5 hPa | 0 mm | - | 814 W/m² | - |
| 1777830000 | 27.22° C | 9% | 1011.7 hPa | 0 mm | - | 798 W/m² | - |
| 1777829402 | 27.22° C | 9% | 1011.8 hPa | 0 mm | - | 782 W/m² | - |
| 1777828799 | 26.67° C | 9% | 1012.1 hPa | 0 mm | - | 763 W/m² | - |
| 1777828199 | 26.11° C | 10% | 1012.1 hPa | 0 mm | - | 740 W/m² | - |
| 1777827599 | 26.67° C | 9% | 1012.2 hPa | 0 mm | - | 721 W/m² | - |
| 1777826998 | 26.11° C | 10% | 1012.2 hPa | 0 mm | - | 698 W/m² | - |
* Rain latest hour (hover to see other rain measurements)
** Current wind speed in m/s (hover to see current wind gust speed)